,,PressureMeas_1m,,PRMeasQMR101_1,,RHStat155_1m_1,,SRMeasQMS101R_1m,,TAStat155_1m_1,,GenWind_1,,GenWind_1,
2019-09-18, 07:00:06,VALID,918.482,VALID,0.0,VALID,97.072,VALID,51.087,VALID,19.048,VALID,133.0,VALID,0.0,
2019-09-18, 07:01:06,VALID,918.492,VALID,0.0,VALID,97.167,VALID,55.199,VALID,19.034,VALID,122.0,VALID,0.0,
2019-09-18, 07:02:06,VALID,918.49,VALID,0.0,VALID,97.026,VALID,61.728,VALID,19.02,INVALID,360.0,VALID,0.0,
2019-09-18, 07:03:06,VALID,918.487,VALID,0.0,VALID,96.942,VALID,58.665,VALID,19.016,VALID,118.0,VALID,0.0,
2019-09-18, 07:04:06,VALID,918.496,VALID,0.0,VALID,96.871,VALID,57.254,VALID,18.987,INVALID,360.0,VALID,0.0,
2019-09-18, 07:05:06,VALID,918.501,VALID,0.0,VALID,97.024,VALID,62.242,VALID,19.022,INVALID,360.0,VALID,0.0,
2019-09-18, 07:06:06,VALID,918.514,VALID,0.0,VALID,97.039,VALID,72.46,VALID,19.042,VALID,122.0,VALID,0.0,
2019-09-18, 07:07:06,VALID,918.513,VALID,0.0,VALID,96.898,VALID,80.75,VALID,19.012,INVALID,360.0,VALID,0.0,
2019-09-18, 07:08:06,VALID,918.525,VALID,0.0,VALID,97.09,VALID,72.513,VALID,19.032,INVALID,360.0,VALID,0.0,
2019-09-18, 07:09:06,VALID,918.557,VALID,0.0,VALID,97.091,VALID,75.835,VALID,19.038,VALID,115.0,VALID,0.0,
2019-09-18, 07:10:06,VALID,918.555,VALID,0.0,VALID,97.218,VALID,77.184,VALID,19.058,VALID,134.0,VALID,0.0,
2019-09-18, 07:11:06,VALID,918.577,VALID,0.0,VALID,97.057,VALID,87.894,VALID,19.063,VALID,91.0,VALID,0.0,
2019-09-18, 07:12:06,VALID,918.576,VALID,0.0,VALID,96.991,VALID,94.903,VALID,19.088,INVALID,360.0,VALID,0.0,
2019-09-18, 07:13:06,VALID,918.589,VALID,0.0,VALID,96.585,VALID,105.299,VALID,19.065,INVALID,360.0,VALID,0.0,
2019-09-18, 07:14:06,VALID,918.605,VALID,0.0,VALID,96.716,VALID,110.362,VALID,19.119,INVALID,360.0,VALID,0.0,
2019-09-18, 07:15:06,VALID,918.619,VALID,0.0,VALID,96.782,VALID,116.901,VALID,19.178,VALID,131.0,VALID,0.0,
2019-09-18, 07:16:06,VALID,918.619,VALID,0.0,VALID,96.542,VALID,112.603,VALID,19.207,INVALID,360.0,VALID,0.0,
2019-09-18, 07:17:06,VALID,918.624,VALID,0.0,VALID,96.034,VALID,110.208,VALID,19.17,INVALID,360.0,VALID,0.0,
2019-09-18, 07:18:06,VALID,918.637,VALID,0.0,VALID,96.025,VALID,106.038,VALID,19.169,INVALID,360.0,VALID,0.0,
2019-09-18, 07:19:06,VALID,918.655,VALID,0.0,VALID,96.085,VALID,107.491,VALID,19.185,VALID,138.0,VALID,0.0,
2019-09-18, 07:20:06,VALID,918.664,VALID,0.0,VALID,96.293,VALID,110.84,VALID,19.235,VALID,123.0,VALID,0.0,
2019-09-18, 07:21:06,VALID,918.68,VALID,0.0,VALID,96.193,VALID,114.555,VALID,19.261,VALID,135.0,VALID,0.0,
2019-09-18, 07:22:06,VALID,918.68,VALID,0.0,VALID,96.06,VALID,107.629,VALID,19.293,INVALID,360.0,VALID,0.0,
2019-09-18, 07:23:06,VALID,918.702,VALID,0.0,VALID,95.642,VALID,112.096,VALID,19.271,INVALID,360.0,VALID,0.0,
2019-09-18, 07:24:06,VALID,918.688,VALID,0.0,VALID,95.787,VALID,134.48,VALID,19.282,VALID,130.0,VALID,0.0,
2019-09-18, 07:25:06,VALID,918.706,VALID,0.0,VALID,96.035,VALID,135.422,VALID,19.363,VALID,103.0,VALID,0.0,
2019-09-18, 07:26:06,VALID,918.684,VALID,0.0,VALID,95.816,VALID,127.73,VALID,19.387,VALID,109.0,VALID,0.0,
2019-09-18, 07:27:06,VALID,918.681,VALID,0.0,VALID,95.326,VALID,121.235,VALID,19.37,INVALID,360.0,VALID,0.0,
2019-09-18, 07:28:06,VALID,918.689,VALID,0.0,VALID,95.383,VALID,114.365,VALID,19.407,VALID,104.0,VALID,0.0,
2019-09-18, 07:29:06,VALID,918.696,VALID,0.0,VALID,95.508,VALID,124.948,VALID,19.461,VALID,136.0,VALID,0.0,
2019-09-18, 07:30:06,VALID,918.698,VALID,0.0,VALID,95.038,VALID,135.147,VALID,19.517,VALID,125.0,VALID,0.0,
2019-09-18, 07:31:06,VALID,918.713,VALID,0.0,VALID,95.117,VALID,143.804,VALID,19.578,INVALID,360.0,VALID,0.0,
2019-09-18, 07:32:06,VALID,918.746,VALID,0.0,VALID,94.31,VALID,150.853,VALID,19.566,VALID,145.0,VALID,0.0,
2019-09-18, 07:33:06,VALID,918.754,VALID,0.0,VALID,94.593,VALID,147.77,VALID,19.6,VALID,130.0,VALID,0.0,
2019-09-18, 07:34:06,VALID,918.77,VALID,0.0,VALID,94.526,VALID,146.45,VALID,19.685,VALID,111.0,VALID,0.0,
2019-09-18, 07:35:06,VALID,918.767,VALID,0.0,VALID,94.205,VALID,136.322,VALID,19.766,INVALID,360.0,VALID,0.0,
2019-09-18, 07:36:06,VALID,918.776,VALID,0.0,VALID,93.47,VALID,139.504,VALID,19.751,VALID,130.0,VALID,0.0,
2019-09-18, 07:37:06,VALID,918.795,VALID,0.0,VALID,93.776,VALID,167.81,VALID,19.779,VALID,126.0,VALID,0.0,
2019-09-18, 07:38:06,VALID,918.775,VALID,0.0,VALID,93.458,VALID,166.087,VALID,19.812,VALID,119.0,VALID,0.0,
2019-09-18, 07:39:06,VALID,918.79,VALID,0.0,VALID,93.362,VALID,195.326,VALID,19.857,INVALID,360.0,VALID,0.0,
2019-09-18, 07:40:06,VALID,918.788,VALID,0.0,VALID,92.785,VALID,186.122,VALID,19.795,INVALID,360.0,VALID,0.0,
2019-09-18, 07:41:06,VALID,918.798,VALID,0.0,VALID,93.665,VALID,159.229,VALID,19.768,VALID,121.0,VALID,0.0,
2019-09-18, 07:42:06,VALID,918.802,VALID,0.0,VALID,93.639,VALID,131.547,VALID,19.884,VALID,116.0,VALID,0.0,
2019-09-18, 07:43:06,VALID,918.811,VALID,0.0,VALID,92.181,VALID,143.707,VALID,19.922,VALID,120.0,VALID,0.0,
2019-09-18, 07:44:06,VALID,918.823,VALID,0.0,VALID,92.32,VALID,186.574,VALID,19.911,VALID,106.0,VALID,0.0,
2019-09-18, 07:45:06,VALID,918.795,VALID,0.0,VALID,92.58,VALID,173.365,VALID,19.975,VALID,102.0,VALID,0.0,
2019-09-18, 07:46:06,VALID,918.812,VALID,0.0,VALID,92.279,VALID,145.157,VALID,20.03,VALID,112.0,VALID,0.0,
2019-09-18, 07:47:06,VALID,918.82,VALID,0.0,VALID,92.692,VALID,170.851,VALID,20.08,VALID,112.0,VALID,0.0,
2019-09-18, 07:48:06,VALID,918.802,VALID,0.0,VALID,92.05,VALID,201.858,VALID,20.148,VALID,124.0,VALID,0.0,
2019-09-18, 07:49:06,VALID,918.807,VALID,0.0,VALID,91.68,VALID,239.684,VALID,20.234,VALID,128.0,VALID,0.0,
2019-09-18, 07:50:06,VALID,918.79,VALID,0.0,VALID,90.995,VALID,263.2,VALID,20.433,VALID,133.0,VALID,0.0,
2019-09-18, 07:51:06,VALID,918.788,VALID,0.0,VALID,89.599,VALID,256.87,VALID,20.577,INVALID,360.0,VALID,0.0,
2019-09-18, 07:52:06,VALID,918.801,VALID,0.0,VALID,89.382,VALID,238.943,VALID,20.63,VALID,204.0,VALID,0.0,
2019-09-18, 07:53:06,VALID,918.853,VALID,0.0,VALID,89.035,VALID,263.767,VALID,20.72,VALID,100.0,VALID,0.0,
2019-09-18, 07:54:06,VALID,918.884,VALID,0.0,VALID,88.779,VALID,220.664,VALID,20.788,VALID,116.0,VALID,0.0,
2019-09-18, 07:55:06,VALID,918.922,VALID,0.0,VALID,88.034,VALID,201.517,VALID,20.896,VALID,106.0,VALID,0.0,
2019-09-18, 07:56:06,VALID,918.941,VALID,0.0,VALID,87.28,VALID,200.569,VALID,21.003,VALID,97.0,VALID,0.0,
2019-09-18, 07:57:06,VALID,918.975,VALID,0.0,VALID,87.372,VALID,230.81,VALID,21.122,VALID,89.0,VALID,0.0,
2019-09-18, 07:58:06,VALID,919.005,VALID,0.0,VALID,86.907,VALID,268.339,VALID,21.196,VALID,92.0,VALID,0.0,
2019-09-18, 07:59:06,VALID,919.01,VALID,0.0,VALID,86.483,VALID,289.825,VALID,21.147,VALID,88.0,VALID,0.0,
2019-09-18, 08:00:06,VALID,919.028,VALID,0.0,VALID,87.087,VALID,247.509,VALID,21.132,VALID,113.0,VALID,0.0,
2019-09-18, 08:01:06,VALID,919.013,VALID,0.0,VALID,86.408,VALID,276.028,VALID,21.018,VALID,126.0,VALID,0.0,
2019-09-18, 08:02:06,VALID,919.014,VALID,0.0,VALID,87.414,VALID,311.652,VALID,21.027,VALID,122.0,VALID,0.0,
2019-09-18, 08:03:06,VALID,919.01,VALID,0.0,VALID,86.919,VALID,323.689,VALID,21.118,VALID,112.0,VALID,0.0,
2019-09-18, 08:04:06,VALID,919.039,VALID,0.0,VALID,86.832,VALID,330.906,VALID,21.256,VALID,100.0,VALID,0.0,
2019-09-18, 08:05:06,VALID,919.032,VALID,0.0,VALID,85.824,VALID,334.183,VALID,21.389,VALID,105.0,VALID,0.0,
2019-09-18, 08:06:06,VALID,919.025,VALID,0.0,VALID,85.49,VALID,336.174,VALID,21.465,VALID,111.0,VALID,0.0,
2019-09-18, 08:07:06,VALID,919.031,VALID,0.0,VALID,85.469,VALID,340.634,VALID,21.545,VALID,89.0,VALID,0.0,
2019-09-18, 08:08:06,VALID,919.025,VALID,0.0,VALID,85.338,VALID,344.686,VALID,21.726,VALID,75.0,VALID,0.0,
2019-09-18, 08:09:06,VALID,919.019,VALID,0.0,VALID,83.29,VALID,350.563,VALID,21.712,VALID,80.0,VALID,0.0,
2019-09-18, 08:10:06,VALID,919.027,VALID,0.0,VALID,84.163,VALID,354.893,VALID,21.838,VALID,108.0,VALID,0.0,
2019-09-18, 08:11:06,VALID,919.001,VALID,0.0,VALID,82.841,VALID,349.808,VALID,21.991,VALID,121.0,VALID,0.0,
2019-09-18, 08:12:06,VALID,918.995,VALID,0.0,VALID,82.051,VALID,345.656,VALID,21.965,VALID,95.0,VALID,0.0,
2019-09-18, 08:13:06,VALID,919.011,VALID,0.0,VALID,82.442,VALID,359.569,VALID,22.115,VALID,84.0,VALID,0.0,
2019-09-18, 08:14:06,VALID,919.0,VALID,0.0,VALID,82.027,VALID,368.895,VALID,22.314,VALID,103.0,VALID,0.0,
2019-09-18, 08:15:06,VALID,919.0,VALID,0.0,VALID,80.41,VALID,374.974,VALID,22.466,VALID,98.0,VALID,0.0,
2019-09-18, 08:16:06,VALID,918.998,VALID,0.0,VALID,80.022,VALID,373.335,VALID,22.703,VALID,93.0,VALID,0.0,
2019-09-18, 08:17:06,VALID,919.011,VALID,0.0,VALID,79.39,VALID,366.012,VALID,22.941,VALID,118.0,VALID,0.0,
2019-09-18, 08:18:06,VALID,919.02,VALID,0.0,VALID,79.247,VALID,349.522,VALID,23.112,VALID,118.0,VALID,0.0,
2019-09-18, 08:19:06,VALID,919.037,VALID,0.0,VALID,78.179,VALID,354.646,VALID,23.047,INVALID,360.0,VALID,0.0,
2019-09-18, 08:20:06,VALID,919.056,VALID,0.0,VALID,78.915,VALID,363.33,VALID,22.791,INVALID,360.0,VALID,0.0,
2019-09-18, 08:21:06,VALID,919.073,VALID,0.0,VALID,79.893,VALID,369.613,VALID,22.776,VALID,122.0,VALID,0.0,
2019-09-18, 08:22:06,VALID,919.108,VALID,0.0,VALID,80.058,VALID,369.015,VALID,22.986,VALID,87.0,VALID,0.0,
2019-09-18, 08:23:06,VALID,919.117,VALID,0.0,VALID,79.511,VALID,380.437,VALID,23.204,VALID,140.0,VALID,0.0,
2019-09-18, 08:24:06,VALID,919.124,VALID,0.0,VALID,78.37,VALID,396.32,VALID,23.269,INVALID,360.0,VALID,0.0,
2019-09-18, 08:25:06,VALID,919.131,VALID,0.0,VALID,77.693,VALID,401.411,VALID,23.199,INVALID,360.0,VALID,0.0,
2019-09-18, 08:26:06,VALID,919.122,VALID,0.0,VALID,79.386,VALID,406.63,VALID,23.163,VALID,100.0,VALID,0.0,
2019-09-18, 08:27:06,VALID,919.141,VALID,0.0,VALID,78.115,VALID,411.68,VALID,23.233,INVALID,360.0,VALID,0.0,
2019-09-18, 08:28:06,VALID,919.137,VALID,0.0,VALID,77.66,VALID,415.217,VALID,23.272,INVALID,360.0,VALID,0.0,
2019-09-18, 08:29:06,VALID,919.121,VALID,0.0,VALID,77.14,VALID,415.223,VALID,23.136,INVALID,360.0,VALID,0.0,
2019-09-18, 08:30:06,VALID,919.127,VALID,0.0,VALID,78.96,VALID,418.77,VALID,23.216,VALID,106.0,VALID,0.0,
2019-09-18, 08:31:06,VALID,919.109,VALID,0.0,VALID,78.381,VALID,420.439,VALID,23.414,VALID,80.0,VALID,0.0,
2019-09-18, 08:32:06,VALID,919.082,VALID,0.0,VALID,77.335,VALID,430.582,VALID,23.663,VALID,75.0,VALID,0.0,
2019-09-18, 08:33:06,VALID,919.096,VALID,0.0,VALID,76.834,VALID,438.091,VALID,23.93,VALID,144.0,VALID,0.0,
2019-09-18, 08:34:06,VALID,919.086,VALID,0.0,VALID,76.052,VALID,443.347,VALID,24.094,INVALID,360.0,VALID,0.0,
2019-09-18, 08:35:06,VALID,919.099,VALID,0.0,VALID,74.627,VALID,449.791,VALID,23.979,INVALID,360.0,VALID,0.0,
2019-09-18, 08:36:06,VALID,919.097,VALID,0.0,VALID,76.594,VALID,452.538,VALID,23.859,INVALID,360.0,VALID,0.0,
2019-09-18, 08:37:06,VALID,919.101,VALID,0.0,VALID,75.462,VALID,455.819,VALID,24.069,INVALID,360.0,VALID,0.0,
2019-09-18, 08:38:06,VALID,919.097,VALID,0.0,VALID,74.08,VALID,457.32,VALID,23.878,INVALID,360.0,VALID,0.0,
2019-09-18, 08:39:06,VALID,919.114,VALID,0.0,VALID,75.29,VALID,454.431,VALID,23.768,VALID,288.0,VALID,0.0,
2019-09-18, 08:40:06,VALID,919.126,VALID,0.0,VALID,75.335,VALID,449.726,VALID,23.962,INVALID,360.0,VALID,0.0,
2019-09-18, 08:41:06,VALID,919.148,VALID,0.0,VALID,74.703,VALID,453.419,VALID,24.198,INVALID,360.0,VALID,0.0,
2019-09-18, 08:42:06,VALID,919.167,VALID,0.0,VALID,74.074,VALID,457.257,VALID,24.439,INVALID,360.0,VALID,0.0,
2019-09-18, 08:43:06,VALID,919.174,VALID,0.0,VALID,73.786,VALID,461.062,VALID,24.536,INVALID,360.0,VALID,0.0,
2019-09-18, 08:44:06,VALID,919.17,VALID,0.0,VALID,74.309,VALID,464.781,VALID,24.405,INVALID,360.0,VALID,0.0,
2019-09-18, 08:45:06,VALID,919.192,VALID,0.0,VALID,73.861,VALID,462.987,VALID,24.191,INVALID,360.0,VALID,0.0,
2019-09-18, 08:46:06,VALID,919.184,VALID,0.0,VALID,74.671,VALID,468.306,VALID,23.836,INVALID,360.0,VALID,0.0,
2019-09-18, 08:47:06,VALID,919.183,VALID,0.0,VALID,76.42,VALID,470.964,VALID,23.546,INVALID,360.0,VALID,0.0,
2019-09-18, 08:48:06,VALID,919.198,VALID,0.0,VALID,76.609,VALID,471.425,VALID,23.336,INVALID,360.0,VALID,0.0,
2019-09-18, 08:49:06,VALID,919.219,VALID,0.0,VALID,77.931,VALID,472.729,VALID,23.309,INVALID,360.0,VALID,0.0,
2019-09-18, 08:50:06,VALID,919.234,VALID,0.0,VALID,77.493,VALID,471.592,VALID,23.506,INVALID,360.0,VALID,0.0,
2019-09-18, 08:51:06,VALID,919.26,VALID,0.0,VALID,76.871,VALID,472.58,VALID,23.711,INVALID,360.0,VALID,0.0,
2019-09-18, 08:52:06,VALID,919.286,VALID,0.0,VALID,75.314,VALID,475.123,VALID,23.822,INVALID,360.0,VALID,0.0,
2019-09-18, 08:53:06,VALID,919.281,VALID,0.0,VALID,74.452,VALID,474.695,VALID,24.056,INVALID,360.0,VALID,0.0,
2019-09-18, 08:54:06,VALID,919.281,VALID,0.0,VALID,74.663,VALID,478.114,VALID,24.06,INVALID,360.0,VALID,0.0,
2019-09-18, 08:55:06,VALID,919.284,VALID,0.0,VALID,75.08,VALID,486.51,VALID,23.95,INVALID,360.0,VALID,0.0,
2019-09-18, 08:56:06,VALID,919.286,VALID,0.0,VALID,75.504,VALID,496.609,VALID,24.021,INVALID,360.0,VALID,0.0,
2019-09-18, 08:57:06,VALID,919.311,VALID,0.0,VALID,74.839,VALID,499.905,VALID,24.064,INVALID,360.0,VALID,0.0,
2019-09-18, 08:58:06,VALID,919.319,VALID,0.0,VALID,73.957,VALID,499.632,VALID,24.075,INVALID,360.0,VALID,0.0,
2019-09-18, 08:59:06,VALID,919.308,VALID,0.0,VALID,73.975,VALID,499.592,VALID,23.968,INVALID,360.0,VALID,0.0,
2019-09-18, 09:00:06,VALID,919.305,VALID,0.0,VALID,74.517,VALID,502.935,VALID,24.083,INVALID,360.0,VALID,0.0,
2019-09-18, 09:01:06,VALID,919.31,VALID,0.0,VALID,73.751,VALID,508.403,VALID,24.319,INVALID,360.0,VALID,0.0,
2019-09-18, 09:02:06,VALID,919.297,VALID,0.0,VALID,73.56,VALID,512.508,VALID,24.069,INVALID,360.0,VALID,0.0,
2019-09-18, 09:03:06,VALID,919.313,VALID,0.0,VALID,74.466,VALID,516.107,VALID,23.8,INVALID,360.0,VALID,0.0,
2019-09-18, 09:04:06,VALID,919.304,VALID,0.0,VALID,75.958,VALID,521.506,VALID,23.674,INVALID,360.0,VALID,0.0,
2019-09-18, 09:05:06,VALID,919.294,VALID,0.0,VALID,75.755,VALID,526.159,VALID,23.673,INVALID,360.0,VALID,0.0,
2019-09-18, 09:06:06,VALID,919.307,VALID,0.0,VALID,75.243,VALID,529.94,VALID,23.726,INVALID,360.0,VALID,0.0,
2019-09-18, 09:07:06,VALID,919.306,VALID,0.0,VALID,75.303,VALID,535.459,VALID,23.632,INVALID,360.0,VALID,0.0,
2019-09-18, 09:08:06,VALID,919.308,VALID,0.0,VALID,75.486,VALID,537.634,VALID,23.605,INVALID,360.0,VALID,0.0,
2019-09-18, 09:09:06,VALID,919.345,VALID,0.0,VALID,74.956,VALID,539.293,VALID,23.661,INVALID,360.0,VALID,0.0,
2019-09-18, 09:10:06,VALID,919.351,VALID,0.0,VALID,75.217,VALID,539.616,VALID,24.015,INVALID,360.0,VALID,0.0,
2019-09-18, 09:11:06,VALID,919.361,VALID,0.0,VALID,73.564,VALID,542.259,VALID,24.516,INVALID,360.0,VALID,0.0,
2019-09-18, 09:12:06,VALID,919.351,VALID,0.0,VALID,72.007,VALID,545.388,VALID,24.812,INVALID,360.0,VALID,0.0,
2019-09-18, 09:13:06,VALID,919.37,VALID,0.0,VALID,71.991,VALID,550.126,VALID,24.635,INVALID,360.0,VALID,0.0,
2019-09-18, 09:14:06,VALID,919.36,VALID,0.0,VALID,72.522,VALID,558.32,VALID,24.447,INVALID,360.0,VALID,0.0,
2019-09-18, 09:15:06,VALID,919.362,VALID,0.0,VALID,73.074,VALID,555.745,VALID,24.336,INVALID,360.0,VALID,0.0,
2019-09-18, 09:16:06,VALID,919.371,VALID,0.0,VALID,72.749,VALID,560.728,VALID,24.416,INVALID,360.0,VALID,0.0,
2019-09-18, 09:17:06,VALID,919.356,VALID,0.0,VALID,72.289,VALID,562.597,VALID,24.281,INVALID,360.0,VALID,0.0,
2019-09-18, 09:18:06,VALID,919.352,VALID,0.0,VALID,73.864,VALID,573.811,VALID,24.215,INVALID,360.0,VALID,0.0,
2019-09-18, 09:19:06,VALID,919.332,VALID,0.0,VALID,72.571,VALID,574.208,VALID,24.307,INVALID,360.0,VALID,0.0,
2019-09-18, 09:20:06,VALID,919.326,VALID,0.0,VALID,73.235,VALID,576.287,VALID,24.166,INVALID,360.0,VALID,0.0,
2019-09-18, 09:21:06,VALID,919.319,VALID,0.0,VALID,73.825,VALID,583.867,VALID,24.241,INVALID,360.0,VALID,0.0,
2019-09-18, 09:22:06,VALID,919.295,VALID,0.0,VALID,72.752,VALID,590.312,VALID,24.43,INVALID,360.0,VALID,0.0,
2019-09-18, 09:23:06,VALID,919.296,VALID,0.0,VALID,71.917,VALID,594.617,VALID,24.583,INVALID,360.0,VALID,0.0,
2019-09-18, 09:24:06,VALID,919.305,VALID,0.0,VALID,71.62,VALID,596.454,VALID,24.643,INVALID,360.0,VALID,0.0,
2019-09-18, 09:25:06,VALID,919.291,VALID,0.0,VALID,71.032,VALID,595.395,VALID,24.884,INVALID,360.0,VALID,0.0,
2019-09-18, 09:26:06,VALID,919.291,VALID,0.0,VALID,68.833,VALID,592.352,VALID,25.272,INVALID,360.0,VALID,0.0,
2019-09-18, 09:27:06,VALID,919.311,VALID,0.0,VALID,68.242,VALID,594.375,VALID,25.644,INVALID,360.0,VALID,0.0,
2019-09-18, 09:28:06,VALID,919.318,VALID,0.0,VALID,66.722,VALID,581.637,VALID,25.766,INVALID,360.0,VALID,0.0,
2019-09-18, 09:29:06,VALID,919.312,VALID,0.0,VALID,67.034,VALID,575.794,VALID,25.816,INVALID,360.0,VALID,0.0,
2019-09-18, 09:30:06,VALID,919.305,VALID,0.0,VALID,67.174,VALID,574.213,VALID,25.749,INVALID,360.0,VALID,0.0,
2019-09-18, 09:31:06,VALID,919.293,VALID,0.0,VALID,65.137,VALID,570.764,VALID,25.855,INVALID,360.0,VALID,0.0,
2019-09-18, 09:32:06,VALID,919.278,VALID,0.0,VALID,64.482,VALID,556.157,VALID,25.97,INVALID,360.0,VALID,0.0,
2019-09-18, 09:33:06,VALID,919.278,VALID,0.0,VALID,65.517,VALID,583.686,VALID,26.052,INVALID,360.0,VALID,0.0,
2019-09-18, 09:34:06,VALID,919.286,VALID,0.0,VALID,66.721,VALID,599.357,VALID,26.221,INVALID,360.0,VALID,0.0,
2019-09-18, 09:35:06,VALID,919.291,VALID,0.0,VALID,65.63,VALID,600.013,VALID,26.236,INVALID,360.0,VALID,0.412,
2019-09-18, 09:36:06,VALID,919.283,VALID,0.0,VALID,64.444,VALID,603.711,VALID,25.87,INVALID,360.0,VALID,0.114,
2019-09-18, 09:37:06,VALID,919.284,VALID,0.0,VALID,65.037,VALID,605.393,VALID,25.703,VALID,47.0,VALID,1.031,
2019-09-18, 09:38:06,VALID,919.295,VALID,0.0,VALID,64.768,VALID,608.45,VALID,25.408,INVALID,360.0,VALID,0.379,
2019-09-18, 09:39:06,VALID,919.275,VALID,0.0,VALID,65.937,VALID,605.864,VALID,25.281,INVALID,360.0,VALID,0.0,
2019-09-18, 09:40:06,VALID,919.288,VALID,0.0,VALID,67.264,VALID,617.587,VALID,25.469,INVALID,360.0,VALID,0.0,
2019-09-18, 09:41:06,VALID,919.278,VALID,0.0,VALID,67.193,VALID,628.841,VALID,25.744,INVALID,360.0,VALID,0.373,
2019-09-18, 09:42:06,VALID,919.259,VALID,0.0,VALID,64.334,VALID,642.883,VALID,25.746,INVALID,360.0,VALID,0.0,
2019-09-18, 09:43:06,VALID,919.287,VALID,0.0,VALID,66.111,VALID,661.59,VALID,25.788,INVALID,360.0,VALID,0.0,
2019-09-18, 09:44:06,VALID,919.266,VALID,0.0,VALID,66.355,VALID,671.203,VALID,25.923,INVALID,360.0,VALID,0.0,
2019-09-18, 09:45:06,VALID,919.247,VALID,0.0,VALID,64.967,VALID,684.657,VALID,26.128,INVALID,360.0,VALID,0.275,
2019-09-18, 09:46:06,VALID,919.264,VALID,0.0,VALID,63.927,VALID,684.251,VALID,26.206,INVALID,360.0,VALID,0.577,
2019-09-18, 09:47:06,VALID,919.225,VALID,0.0,VALID,64.935,VALID,681.735,VALID,26.244,INVALID,360.0,VALID,0.192,
2019-09-18, 09:48:06,VALID,919.199,VALID,0.0,VALID,62.697,VALID,678.151,VALID,26.142,INVALID,360.0,VALID,0.007,
2019-09-18, 09:49:06,VALID,919.195,VALID,0.0,VALID,62.03,VALID,678.742,VALID,26.247,INVALID,360.0,VALID,0.0,
2019-09-18, 09:50:06,VALID,919.19,VALID,0.0,VALID,64.21,VALID,681.009,VALID,26.323,INVALID,360.0,VALID,0.058,
2019-09-18, 09:51:06,VALID,919.185,VALID,0.0,VALID,64.431,VALID,686.636,VALID,26.31,INVALID,360.0,VALID,0.0,
2019-09-18, 09:52:06,VALID,919.18,VALID,0.0,VALID,64.667,VALID,696.509,VALID,26.193,INVALID,360.0,VALID,0.0,
2019-09-18, 09:53:06,VALID,919.163,VALID,0.0,VALID,64.75,VALID,696.142,VALID,26.152,INVALID,360.0,VALID,0.0,
2019-09-18, 09:54:06,VALID,919.138,VALID,0.0,VALID,64.174,VALID,703.823,VALID,26.43,INVALID,360.0,VALID,0.0,
2019-09-18, 09:55:06,VALID,919.174,VALID,0.0,VALID,63.959,VALID,701.825,VALID,26.773,INVALID,360.0,VALID,0.0,
2019-09-18, 09:56:06,VALID,919.146,VALID,0.0,VALID,61.916,VALID,697.495,VALID,26.772,INVALID,360.0,VALID,0.0,
2019-09-18, 09:57:06,VALID,919.123,VALID,0.0,VALID,62.884,VALID,713.479,VALID,26.536,INVALID,360.0,VALID,0.281,
2019-09-18, 09:58:06,VALID,919.113,VALID,0.0,VALID,64.066,VALID,714.931,VALID,26.42,INVALID,360.0,VALID,0.0,
2019-09-18, 09:59:06,VALID,919.115,VALID,0.0,VALID,63.227,VALID,712.873,VALID,26.625,INVALID,360.0,VALID,0.0,
2019-09-18, 10:00:06,VALID,919.077,VALID,0.0,VALID,62.484,VALID,714.903,VALID,26.789,INVALID,360.0,VALID,0.0,
2019-09-18, 10:01:06,VALID,919.115,VALID,0.0,VALID,62.36,VALID,721.802,VALID,26.674,INVALID,360.0,VALID,0.0,
2019-09-18, 10:02:06,VALID,919.116,VALID,0.0,VALID,64.206,VALID,731.504,VALID,26.661,INVALID,360.0,VALID,0.0,
2019-09-18, 10:03:06,VALID,919.112,VALID,0.0,VALID,62.761,VALID,726.114,VALID,26.636,INVALID,360.0,VALID,0.0,
2019-09-18, 10:04:06,VALID,919.126,VALID,0.0,VALID,62.977,VALID,714.348,VALID,26.436,INVALID,360.0,VALID,0.01,
2019-09-18, 10:05:06,VALID,919.125,VALID,0.0,VALID,61.135,VALID,735.97,VALID,26.135,INVALID,360.0,VALID,0.0,
2019-09-18, 10:06:06,VALID,919.125,VALID,0.0,VALID,63.36,VALID,744.921,VALID,26.253,INVALID,360.0,VALID,0.164,
2019-09-18, 10:07:06,VALID,919.116,VALID,0.0,VALID,62.513,VALID,753.297,VALID,26.314,INVALID,360.0,VALID,0.0,
2019-09-18, 10:08:06,VALID,919.127,VALID,0.0,VALID,64.762,VALID,746.005,VALID,26.315,INVALID,360.0,VALID,0.0,
2019-09-18, 10:09:06,VALID,919.115,VALID,0.0,VALID,62.969,VALID,758.925,VALID,26.647,INVALID,360.0,VALID,0.446,
2019-09-18, 10:10:06,VALID,919.094,VALID,0.0,VALID,62.241,VALID,770.834,VALID,26.615,INVALID,360.0,VALID,0.253,
2019-09-18, 10:11:06,VALID,919.094,VALID,0.0,VALID,62.718,VALID,772.199,VALID,26.648,INVALID,360.0,VALID,2.261,
2019-09-18, 10:12:06,VALID,919.092,VALID,0.0,VALID,62.1,VALID,772.324,VALID,26.332,VALID,44.0,VALID,3.134,
2019-09-18, 10:13:06,VALID,919.057,VALID,0.0,VALID,62.516,VALID,771.894,VALID,25.962,VALID,46.0,VALID,2.227,
2019-09-18, 10:14:06,VALID,919.059,VALID,0.0,VALID,65.054,VALID,779.087,VALID,26.084,VALID,44.0,VALID,1.599,
2019-09-18, 10:15:06,VALID,919.055,VALID,0.0,VALID,61.42,VALID,778.921,VALID,26.324,VALID,45.0,VALID,2.121,
2019-09-18, 10:16:06,VALID,919.053,VALID,0.0,VALID,61.563,VALID,778.167,VALID,26.282,VALID,41.0,VALID,0.698,
2019-09-18, 10:17:06,VALID,919.033,VALID,0.0,VALID,61.851,VALID,769.191,VALID,26.72,VALID,43.0,VALID,1.152,
2019-09-18, 10:18:06,VALID,919.028,VALID,0.0,VALID,59.546,VALID,761.94,VALID,26.769,INVALID,360.0,VALID,0.003,
2019-09-18, 10:19:06,VALID,919.027,VALID,0.0,VALID,60.281,VALID,751.091,VALID,26.794,INVALID,360.0,VALID,1.157,
2019-09-18, 10:20:06,VALID,919.005,VALID,0.0,VALID,59.407,VALID,747.24,VALID,26.935,VALID,35.0,VALID,1.162,
2019-09-18, 10:21:06,VALID,918.982,VALID,0.0,VALID,58.784,VALID,752.862,VALID,26.936,VALID,47.0,VALID,0.77,
2019-09-18, 10:22:06,VALID,918.981,VALID,0.0,VALID,60.093,VALID,763.331,VALID,26.824,INVALID,360.0,VALID,0.007,
2019-09-18, 10:23:06,VALID,918.973,VALID,0.0,VALID,61.725,VALID,747.641,VALID,27.012,INVALID,360.0,VALID,0.17,
2019-09-18, 10:24:06,VALID,918.979,VALID,0.0,VALID,58.709,VALID,745.742,VALID,27.251,VALID,48.0,VALID,0.714,
2019-09-18, 10:25:06,VALID,918.968,VALID,0.0,VALID,59.029,VALID,754.714,VALID,27.414,INVALID,360.0,VALID,0.0,
2019-09-18, 10:26:06,VALID,918.97,VALID,0.0,VALID,59.323,VALID,782.206,VALID,27.442,VALID,46.0,VALID,1.32,
2019-09-18, 10:27:06,VALID,918.979,VALID,0.0,VALID,58.557,VALID,806.088,VALID,27.296,INVALID,360.0,VALID,0.746,
2019-09-18, 10:28:06,VALID,918.941,VALID,0.0,VALID,58.433,VALID,810.064,VALID,27.157,INVALID,360.0,VALID,0.0,
2019-09-18, 10:29:06,VALID,918.958,VALID,0.0,VALID,59.268,VALID,802.805,VALID,27.381,INVALID,360.0,VALID,0.0,
2019-09-18, 10:30:06,VALID,918.981,VALID,0.0,VALID,59.685,VALID,796.604,VALID,27.708,INVALID,360.0,VALID,0.0,
2019-09-18, 10:31:06,VALID,918.974,VALID,0.0,VALID,58.808,VALID,819.347,VALID,27.812,INVALID,360.0,VALID,0.0,
2019-09-18, 10:32:06,VALID,918.972,VALID,0.0,VALID,58.363,VALID,824.044,VALID,27.724,INVALID,360.0,VALID,0.0,
2019-09-18, 10:33:06,VALID,918.97,VALID,0.0,VALID,59.272,VALID,819.679,VALID,27.366,INVALID,360.0,VALID,0.0,
2019-09-18, 10:34:06,VALID,918.962,VALID,0.0,VALID,60.825,VALID,816.051,VALID,27.168,INVALID,360.0,VALID,0.0,
2019-09-18, 10:35:06,VALID,918.951,VALID,0.0,VALID,61.019,VALID,831.271,VALID,27.373,INVALID,360.0,VALID,0.0,
2019-09-18, 10:36:06,VALID,918.931,VALID,0.0,VALID,60.007,VALID,845.567,VALID,27.624,INVALID,360.0,VALID,0.0,